OBJECT C, 60747

Orbit data source: Space-Track

You're viewing an Uncataloged Satellite

Recently launched and/or uncataloged satellites may have evolving metadata. Metadata may include but not limited to: Owner, Maufacturer, Bus, Motor, and Mission.

OBJECT C, 60747 is a satellite owned by Yunyao yuhang (CN) in SSO that was launched on Thu, 29 Aug 2024 UTC via a GUSHENXING 1 launch vehicle from the Yellow Sea Launch Area, China (YSLA). Unknown objects in Earth's orbit typically refer to objects detected orbiting the Earth but have not yet been identified or cataloged. These objects could be anything from previously untracked satellites, spent rocket stages, debris from satellite collisions, or even natural meteoroids temporarily captured by Earth's gravity.

Loading next visibility...
Identifier
60747, 2024-153C
Orbit
SSO
Last TLE update
9 hours ago
Origin
Flag of CNYYAO (CN / PRC)
Manufacturer
Changguang WJ
Mission
Operational Commercial Weather
Bus & Motor
YY-1, Unknown motor
Mass
~50 kg wet, ~50 kg dry
Launch date (UTC)
2024-08-29 (8 months ago)
Launch vehicle
GUSHENXING 1
Launch site
Yellow Sea Launch Area, China (YSLA)
Object type
Unknown
Shape & HBR
Box + 1 Pan, 5 m
Radar Cross Section
5.339 m², Medium (>0.1 m² and < 1m²)

Expand to show TLE details & history

TLE from 9 hours ago
0 OBJECT C
1 60747U 24153C   25129.50463941  .00016010  00000-0  68774-3 0  9993
2 60747  97.6327 254.1555 0014657 134.8948 225.3480 15.22671698 38380
Epoch: 2025-05-09T12:06Z
Definitive object data (Epoch: 2025-05-09T12:06:40.845Z)
Latitude
-0.00004°
Longitude
-155.07451°
Altitude
507.965 km
Speed
7.606 km/s
True Right ascension
16h 56m 37s
True Declination
0° 00' 00"
Sunlit
Object was in full shadow at TLE epoch
Visualization TLE readout
Latitude
-81.06407°
Longitude
-32.64265°
Altitude
532.665 km
Speed
7.591 km/s
Apparent Right ascension
18h 09m 56s
Apparent Declination
-67° 24' 57"
Sunlit
Object is in daylight
Visualization observer readout
Local Sidereal Time
05:20:42
Azimuth
189.934° SSW
Elevation
-61.672°
Doppler factor
1
Orbital elements
Apogee altitude
504.832 km
Perigee altitude
484.684 km
Semi-major axis
6,872.895 km
Eccentricity
0.0014657
Inclination
97.6327°
RAAN
254.1555°
Arg. of periapsis
134.8948°
True anomaly
225.22867°
Mean anomaly
225.348°
Eccentric anomaly
225.28832°
Mean motion
3.8092 °/min
BSTAR
0.00068774
Orbital period
94.51 mins
Loading maneuver chart data...
Loading SW <> Apogee altitude chart data...
Loading historical data...
Loading historical data...
Loading historical data...
Loading historical data...
Loading historical data...
Loading historical data...
Loading historical data...

OBJECT C Visibility forecast

Observer location: undefined°, undefined°

Span
Click to sort rows by Start time (UTC) header in descending order
Start Az.
Max El. time (UTC)
Max El. Az.
Max El.
End time (UTC)
End Az.
4 mins2025-05-09 22:08:27.358Z325.065° NNW2025-05-09 22:10:27.358Z287.638° WNW15.498°2025-05-09 22:12:27.358Z253.307° W
5 mins2025-05-10 08:45:27.358Z207.134° SW2025-05-10 08:47:27.358Z272.078° WNW31.705°2025-05-10 08:50:27.358Z330.531° NNW
|